Weather in Tabynskoye

Russia / Republic of Bashkortostan     53°58′59″N   56°23′01″E
temp.,
°C
wind,
m/s
gust,
m/s
humid.,
%
clouds,
%
prec.,
mm/h
press.,
hPa
HPBL,
m
19 september, sun
sun1923:00+1wnw269148 0.9 1018121
02:00+1w299697 0.0 1018351
05:00+1wnw389448 0.1 1019354
08:000w279761 0.0 1020307
11:00+4nw5776100 0.1 10211016
14:00+7nw575791 0.0 10221506
17:00+9nw574868 0.1 10221679
20:00+4nw226589 0.0 102314
20 september, mon
mon2023:00+1wnw117634 0.0 102410
02:000wsw1180100 0.0 102510
05:00−1ne1186100 0.0 102610
08:000ene118259 0.0 102736
11:00+6n34545 0.0 1027893
14:00+8n344655 0.0 10271172
17:00+8n3446100 0.0 10261154
20:00+4nne2263100 0.0 102718
21 september, tue
tue2123:00+2ene1170100 0.0 102810
02:00+1e117575 0.0 102811
05:00+1e2278100 0.0 102816
08:00+2e2275100 0.0 102852
11:00+9ese2349100 0.0 1027526
14:00+12s2338100 0.0 10261258
17:00+13sw2340100 0.0 10251142
20:00+7e1154100 0.0 102510
22 september, wed
wed2223:00+6ese1160100 0.0 102511
02:00+5ese2164100 0.0 102511
05:00+4ese1163100 0.0 102511
08:00+6e1160100 0.0 102533
11:00+9e1160100 0.0 102577
14:00+10ese1160100 0.0 102573
17:00+10se1162100 0.0 102511
20:00+9e1158100 0.0 102610
23 september, thu
thu2323:00+9se1156100 0.0 102610
02:00+9ese115497 0.0 102610
05:00+9ese115495 0.0 102711
08:00+9ese115597 0.0 102713
11:00+14se124429 0.0 1028315
14:00+18sse22359 0.0 10271294
17:00+18sse123869 0.0 10271476
20:00+11ese22575 0.0 102714